Location: ActonStarParty
(42.4766°N, 71.4538°W)
Time: 03:09:37
(UTC-04:00)

ATLAS 5 CENTAUR R/B - Visible Passes

Search period start: 30 April 2017 00:00
Search period end: 10 May 2017 00:00
Orbit: 236 x 14673 km, 60.8° (Epoch: 07 August)

Date Brightness Start Highest point End Pass type
(mag) Time Alt. Az. Time Alt. Az. Time Alt. Az.
30 Apr 6.7 01:05:58 10° WSW 01:30:03 68° NNW 03:45:06 10° E visible
30 Apr 6.2 23:16:06 11° SSW 23:31:40 88° SE 01:14:53 10° NE visible
01 May 7.6 03:58:30 10° WNW 05:14:37 68° NE 07:04:06 10° SE visible
01 May 5.9 21:28:54 11° SSE 21:42:48 50° E 22:52:04 10° NE visible
02 May 7.1 02:04:01 10° W 02:40:23 62° N 05:00:07 10° E visible
02 May 6.3 19:46:48 10° ESE 20:01:07 22° ENE 20:37:24 10° NE visible
03 May 6.5 00:11:59 10° WSW 00:32:07 74° NW 02:38:05 10° ENE visible
03 May 7.9 04:58:38 10° NW 06:33:38 81° ENE 08:03:31 10° SSE visible
03 May 6.1 22:22:40 10° SSW 22:37:11 75° ESE 00:07:48 10° NE visible
04 May 7.5 03:02:53 10° WNW 04:02:58 64° NNE 06:06:51 10° ESE visible
04 May 6.0 20:36:38 10° SSE 20:50:49 39° E 21:48:49 10° NE visible
05 May 6.9 01:09:01 10° W 01:37:46 64° NNW 03:57:12 10° E visible
05 May 6.4 23:17:44 10° SW 23:35:03 82° NW 01:28:57 10° ENE visible
06 May 7.8 04:02:16 10° WNW 05:28:51 74° NE 07:07:52 10° SE visible
06 May 6.0 21:29:15 10° S 21:43:08 62° ESE 23:01:36 10° NE visible
07 May 7.3 02:06:55 10° W 02:52:25 62° N 05:07:26 10° ESE visible
07 May 6.1 19:44:45 10° SE 19:59:04 29° ENE 20:45:27 10° NE visible
08 May 6.8 00:13:45 10° WSW 00:37:05 68° NNW 02:50:54 10° E visible
08 May 8.0 05:01:49 10° NW 06:39:40 88° ENE 08:05:03 10° SSE visible
08 May 6.3 22:23:15 10° SSW 22:38:35 87° ESE 00:19:14 10° NE visible
09 May 7.7 03:05:29 10° WNW 04:18:47 68° NE 06:10:37 10° SE visible
09 May 6.0 20:35:44 10° SSE 20:49:28 49° E 21:56:12 10° NE visible
